Regional Weather Roundup
Issued by NWS

Home | Current Version | Previous Version | Graphics & Text | Print | Product List | Glossary On
Versions: 1 2 3 4 5 6 7 8 9 10 11 12 13 14 15 16 17 18 19 20 21 22 23 24 25 26 27 28 29 30 31 32 33 34 35 36 37 38 39 40 41 42 43 44 45 46 47 48 49 50
567
ASUS43 KLMK 121110
RWRKY
KENTUCKY REGIONAL WEATHER ROUNDUP
NATIONAL WEATHER SERVICE LOUISVILLE KY
600 AM EST FRI FEB 12 2016

NOTE "FAIR" INDICATES FEW OR NO CLOUDS BELOW 12,000 FEET
WITH NO SIGNIFICANT WEATHER AND/OR OBSTRUCTIONS TO VISIBILITY.

KYZ001>023-026-027-061>063-070>075-121200-
WESTERN AND SOUTH CENTRAL KENTUCKY

CITY           SKY/WX    TMP DP  RH WIND       PRES   REMARKS
PADUCAH        CLOUDY    29  23  78 NE6       30.19S WCI  23
HENDERSON      CLOUDY    25  19  80 CALM      30.21S
OWENSBORO      LGT SNOW  25  23  93 CALM      30.21F FOG
HOPKINSVILLE   CLOUDY    28  23  81 E3        30.18S
BOWLING GREEN  LGT SNOW  28  25  88 NE3       30.21S VSB 3/4
GLASGOW        LGT SNOW  28  19  69 CALM      30.20R
$$

KYZ024-025-028>034-038-045-046-053-121200-
NORTH CENTRAL KENTUCKY

CITY           SKY/WX    TMP DP  RH WIND       PRES   REMARKS
LOUISVILLE/SDF CLOUDY    27  12  53 SE5       30.20F WCI  22
LOUISVILLE/LOU CLOUDY    26  13  57 CALM      30.21S
FORT KNOX      PTCLDY    26  13  58 E2        30.16F
$$

KYZ035>037-039>044-047>052-055>060-089>105-121200-
NORTHEAST KENTUCKY

CITY           SKY/WX    TMP DP  RH WIND       PRES   REMARKS
LEXINGTON      CLOUDY    24  13  62 SE5       30.17R WCI  18
COVINGTON      CLOUDY    20   9  62 E3        30.19R
FRANKFORT      CLOUDY    24  14  65 CALM      30.18R
$$

KYZ054-064>069-076>088-106>120-121200-
SOUTHEAST KENTUCKY

CITY           SKY/WX    TMP DP  RH WIND       PRES   REMARKS
JACKSON        CLOUDY    21   8  57 VRB5      30.14F WCI  15
LONDON         CLOUDY    24  12  60 E3        30.14F
SOMERSET       CLOUDY    27  14  59 CALM      30.19R
MIDDLESBORO    CLOUDY    28  21  75 CALM      30.15F
MONTICELLO     CLOUDY    27  18  69 CALM      30.18R
$$





USA.gov is the U.S. government's official web portal to all federal, state and local government web resources and services.